This is the latest recevied weather packets stored in our database for station/object MM1PTT-13. If no packets are shown the sender has not sent any weather packets the latest 10 day(s).
| Time | Temp. | Humidity | Pressure | Rain* | Wind** | Luminosity | Snow |
|---|---|---|---|---|---|---|---|
| 1777486843 | 15° C | 56% | 998.6 hPa | 0 mm | - | 44 W/m² | - |
| 1777486244 | 15.56° C | 52% | 998.6 hPa | 0 mm | - | 62 W/m² | - |
| 1777485943 | 16.11° C | 54% | 998.6 hPa | 0 mm | - | 66 W/m² | - |
| 1777485643 | 16.11° C | 53% | 998.6 hPa | 0 mm | - | 70 W/m² | - |
| 1777485342 | 16.11° C | 54% | 998.6 hPa | 0 mm | - | 74 W/m² | - |
| 1777485043 | 16.11° C | 53% | 998.6 hPa | 0 mm | - | 78 W/m² | - |
| 1777484743 | 16.11° C | 51% | 998.6 hPa | 0 mm | - | 80 W/m² | - |
| 1777484444 | 16.67° C | 52% | 998.6 hPa | 0 mm | - | 82 W/m² | - |
| 1777484143 | 16.67° C | 51% | 998.6 hPa | 0 mm | - | 86 W/m² | - |
| 1777483843 | 16.67° C | 52% | 999 hPa | 0 mm | - | 90 W/m² | - |
| 1777483543 | 16.67° C | 51% | 999 hPa | 0 mm | - | 94 W/m² | - |
| 1777483243 | 16.67° C | 50% | 999 hPa | 0 mm | - | 100 W/m² | - |
| 1777482946 | 16.67° C | 51% | 999 hPa | 0 mm | - | 103 W/m² | - |
| 1777482643 | 16.67° C | 49% | 999 hPa | 0 mm | - | 109 W/m² | - |
| 1777482345 | 17.22° C | 48% | 999 hPa | 0 mm | - | 113 W/m² | - |
| 1777482046 | 17.22° C | 50% | 999 hPa | 0 mm | - | 119 W/m² | - |
| 1777481743 | 17.22° C | 49% | 999 hPa | 0 mm | - | 126 W/m² | - |
| 1777481443 | 17.22° C | 48% | 999 hPa | 0 mm | - | 132 W/m² | - |
| 1777481143 | 17.22° C | 47% | 999 hPa | 0 mm | - | 137 W/m² | - |
| 1777480843 | 17.22° C | 48% | 999.3 hPa | 0 mm | - | 143 W/m² | - |
| 1777480543 | 17.22° C | 46% | 999 hPa | 0 mm | - | 147 W/m² | - |
| 1777480246 | 17.22° C | 46% | 999 hPa | 0 mm | - | 154 W/m² | - |
| 1777479944 | 17.22° C | 46% | 999.3 hPa | 0 mm | - | 159 W/m² | - |
| 1777479643 | 17.22° C | 47% | 999 hPa | 0 mm | - | 165 W/m² | - |
| 1777479343 | 17.78° C | 47% | 999.3 hPa | 0 mm | - | 171 W/m² | - |
* Rain latest hour (hover to see other rain measurements)
** Current wind speed in m/s (hover to see current wind gust speed)